Find Starlink 31397

NORAD ID: 59540 Int'l Des: 2024-074 Owner: SPXS Country: US Constellation: starlink operational
LEOCIRCULAR

当前视图

正在加载3D地球...

About Starlink 31397

Starlink 31397 (NORAD 59540) is a starlink constellation satellite (v2 mini) launched Apr 18, 2024 by SPXS of US. It operates in LEO, CIRCULAR orbit with a mass of 730.00 kg.

关于 Starlink 31397

正在加载描述...

即将过境

Passes for default location (London). Set your location on the main map for personalized predictions.

高度历史

Loading altitude history...

两行轨道根数

1 59540U 24074G 26192.87415272 .00000429 00000-0 25152-4 0 9990
2 59540 43.0067 2.4565 0003079 250.5205 109.5314 15.27582104125001
Epoch: Jul 11, 2026 • Age: 18 hours

当前状态

高度 487.4 km
远地点 / 近地点 N/A
速度 7.63 km/s
星下点 40.58°N, 38.88°W
发射日期 Apr 18, 2024
运行时间 2.2 years
类型 internet

技术详情

分类 Payload
质量 730.00 kg
干质量 700.00 kg
总质量 730.00 kg
长度 0.30 m
直径 4.10 m
跨度 29.00 m
形状 Box + pan
制造商 SPXS
平台类型 Starlink V2M
阶段状态 In Orbit
所有者/国家 SPXS/US

Most Searched